• In Hungary
  • List of Countries
  • For 7 days
  • Water Temperature
  • Satellite Maps
  • Weather Map
  • News
  • Weather Widgets
  • user-avatar
    Login

    Hourly Weather Madras

    Today, 18 October, Wednesday

    Time Temperature Precipitation Wind Pressure Humidity
    00:00 +28°C° 0 mm 2 mps 753 mmHg 74%
    01:00 +28°C° 0 mm 2 mps 753 mmHg 74%
    02:00 +28°C° 0 mm 3 mps 753 mmHg 74%
    03:00 +28°C° 0 mm 3 mps 753 mmHg 72%
    04:00 +28°C° 0 mm 3 mps 753 mmHg 70%
    05:00 +28°C° 0 mm 2 mps 753 mmHg 70%
    06:00 +29°C° 0 mm 3 mps 753 mmHg 70%
    07:00 +29°C° 0 mm 3 mps 754 mmHg 70%
    08:00 +29°C° 0 mm 3 mps 754 mmHg 70%
    09:00 +30°C° 0 mm 3 mps 754 mmHg 68%
    10:00 +31°C° 0 mm 3 mps 754 mmHg 66%
    11:00 +34°C° 0 mm 2 mps 754 mmHg 56%
    12:00 +34°C° 0 mm 2 mps 753 mmHg 54%
    13:00 +34°C° 0 mm 1 mps 753 mmHg 53%
    14:00 +34°C° 0 mm 1 mps 752 mmHg 51%
    15:00 +33°C° 0 mm 1 mps 752 mmHg 52%
    16:00 +32°C° 0 mm 1 mps 752 mmHg 53%
    17:00 +32°C° 0 mm 1 mps 752 mmHg 54%
    18:00 +31°C° 0 mm 2 mps 753 mmHg 56%
    19:00 +30°C° 0 mm 2 mps 753 mmHg 57%
    20:00 +30°C° 0 mm 2 mps 753 mmHg 59%
    21:00 +29°C° 0 mm 2 mps 753 mmHg 60%
    22:00 +29°C° 0 mm 2 mps 753 mmHg 61%
    23:00 +29°C° 0 mm 2 mps 753 mmHg 62%

    Tomorrow, 19 October, Thursday

    Time Temperature Precipitation Wind Pressure Humidity
    00:00 +29°C° 0 mm 2 mps 753 mmHg 63%
    01:00 +29°C° 0 mm 3 mps 753 mmHg 63%
    02:00 +28°C° 0 mm 3 mps 752 mmHg 63%
    03:00 +28°C° 0 mm 3 mps 752 mmHg 64%
    04:00 +28°C° 0 mm 4 mps 753 mmHg 65%
    05:00 +28°C° 0 mm 4 mps 753 mmHg 66%
    06:00 +29°C° 0 mm 4 mps 753 mmHg 65%
    07:00 +29°C° 0 mm 4 mps 754 mmHg 63%
    08:00 +30°C° 0 mm 4 mps 755 mmHg 62%
    09:00 +33°C° 0 mm 4 mps 754 mmHg 55%
    10:00 +35°C° 0 mm 4 mps 754 mmHg 48%
    11:00 +36°C° 0 mm 3 mps 754 mmHg 41%
    12:00 +37°C° 0 mm 3 mps 754 mmHg 39%
    13:00 +37°C° 0 mm 3 mps 753 mmHg 37%
    14:00 +38°C° 0 mm 2 mps 752 mmHg 35%
    15:00 +36°C° 0 mm 3 mps 752 mmHg 40%
    16:00 +35°C° 0 mm 3 mps 752 mmHg 45%
    17:00 +34°C° 0 mm 3 mps 752 mmHg 50%
    18:00 +33°C° 0 mm 4 mps 753 mmHg 53%
    19:00 +32°C° 0 mm 4 mps 754 mmHg 55%
    20:00 +30°C° 0 mm 4 mps 754 mmHg 58%
    21:00 +30°C° 0 mm 4 mps 755 mmHg 62%
    22:00 +30°C° 0 mm 5 mps 755 mmHg 65%
    23:00 +29°C° 0 mm 5 mps 755 mmHg 68%

    Day after tomorrow, 20 October, Friday

    Time Temperature Precipitation Wind Pressure Humidity
    00:00 +29°C° 0 mm 5 mps 754 mmHg 70%
    01:00 +29°C° 0 mm 6 mps 754 mmHg 72%
    02:00 +28°C° 0 mm 6 mps 753 mmHg 74%
    03:00 +28°C° 0 mm 6 mps 753 mmHg 75%
    04:00 +28°C° 0 mm 6 mps 754 mmHg 76%
    05:00 +27°C° 0 mm 5 mps 754 mmHg 77%
    06:00 +29°C° 0 mm 5 mps 754 mmHg 72%
    07:00 +30°C° 0 mm 5 mps 755 mmHg 67%
    08:00 +32°C° 0 mm 5 mps 756 mmHg 63%
    09:00 +34°C° 0.1 mm 5 mps 756 mmHg 56%
    10:00 +36°C° 0.1 mm 4 mps 756 mmHg 49%
    11:00 +37°C° 0.1 mm 4 mps 755 mmHg 42%
    12:00 +38°C° 0 mm 4 mps 755 mmHg 40%
    13:00 +38°C° 0 mm 4 mps 754 mmHg 38%
    14:00 +38°C° 0 mm 4 mps 753 mmHg 36%
    15:00 +37°C° 0 mm 4 mps 753 mmHg 42%
    16:00 +36°C° 0 mm 4 mps 753 mmHg 49%
    17:00 +34°C° 0 mm 5 mps 753 mmHg 55%
    18:00 +33°C° 0 mm 5 mps 754 mmHg 61%
    19:00 +32°C° 0 mm 5 mps 755 mmHg 67%
    20:00 +30°C° 0 mm 5 mps 755 mmHg 73%
    21:00 +30°C° 0.1 mm 5 mps 755 mmHg 74%
    22:00 +30°C° 0.1 mm 5 mps 755 mmHg 76%
    23:00 +30°C° 0.1 mm 5 mps 755 mmHg 77%

    21 October, Saturday

    Time Temperature Precipitation Wind Pressure Humidity
    00:00 +30°C° 0.2 mm 5 mps 755 mmHg 77%
    01:00 +29°C° 0.2 mm 5 mps 754 mmHg 78%
    02:00 +29°C° 0.2 mm 6 mps 753 mmHg 78%
    03:00 +29°C° 0.2 mm 5 mps 754 mmHg 79%
    04:00 +29°C° 0.2 mm 5 mps 754 mmHg 81%
    05:00 +28°C° 0.2 mm 5 mps 754 mmHg 82%
    06:00 +30°C° 0.2 mm 4 mps 755 mmHg 77%
    07:00 +32°C° 0.2 mm 4 mps 756 mmHg 72%
    08:00 +33°C° 0.2 mm 4 mps 756 mmHg 67%
    09:00 +34°C° 0.1 mm 3 mps 756 mmHg 59%
    10:00 +36°C° 0.1 mm 3 mps 756 mmHg 51%
    11:00 +37°C° 0.1 mm 3 mps 755 mmHg 43%
    12:00 +38°C° 0.1 mm 3 mps 755 mmHg 41%
    13:00 +38°C° 0.1 mm 3 mps 754 mmHg 39%
    14:00 +38°C° 0.1 mm 4 mps 753 mmHg 37%
    15:00 +37°C° 0.2 mm 4 mps 753 mmHg 43%
    16:00 +36°C° 0.2 mm 4 mps 753 mmHg 50%
    17:00 +34°C° 0.2 mm 4 mps 753 mmHg 56%
    18:00 +33°C° 0 mm 4 mps 754 mmHg 59%
    19:00 +33°C° 0 mm 4 mps 755 mmHg 63%
    20:00 +32°C° 0 mm 4 mps 755 mmHg 66%
    21:00 +32°C° 0.1 mm 5 mps 755 mmHg 68%
    22:00 +30°C° 0.1 mm 5 mps 755 mmHg 70%
    23:00 +30°C° 0.1 mm 5 mps 755 mmHg 72%

    22 October, Sunday

    Time Temperature Precipitation Wind Pressure Humidity
    00:00 +30°C° 0 mm 5 mps 755 mmHg 74%
    01:00 +29°C° 0 mm 5 mps 754 mmHg 75%
    02:00 +29°C° 0 mm 6 mps 754 mmHg 77%
    03:00 +29°C° 0 mm 5 mps 754 mmHg 78%
    04:00 +29°C° 0 mm 5 mps 754 mmHg 78%
    05:00 +28°C° 0 mm 4 mps 754 mmHg 79%
    06:00 +30°C° 0.1 mm 4 mps 755 mmHg 74%
    07:00 +32°C° 0.1 mm 4 mps 756 mmHg 69%
    08:00 +33°C° 0.1 mm 3 mps 756 mmHg 63%
    09:00 +34°C° 0.1 mm 3 mps 756 mmHg 56%
    10:00 +36°C° 0.1 mm 3 mps 756 mmHg 49%
    11:00 +37°C° 0.1 mm 3 mps 755 mmHg 42%
    12:00 +38°C° 0 mm 3 mps 755 mmHg 40%
    13:00 +38°C° 0 mm 3 mps 754 mmHg 38%
    14:00 +38°C° 0 mm 3 mps 753 mmHg 36%
    15:00 +37°C° 0 mm 3 mps 753 mmHg 42%
    16:00 +36°C° 0 mm 3 mps 754 mmHg 48%
    17:00 +35°C° 0 mm 3 mps 754 mmHg 53%
    18:00 +34°C° 0 mm 3 mps 754 mmHg 56%
    19:00 +33°C° 0 mm 3 mps 755 mmHg 59%
    20:00 +31°C° 0 mm 3 mps 756 mmHg 63%
    21:00 +30°C° 0 mm 3 mps 755 mmHg 65%
    22:00 +30°C° 0 mm 4 mps 755 mmHg 67%
    23:00 +30°C° 0 mm 4 mps 755 mmHg 69%

    23 October, Monday

    Time Temperature Precipitation Wind Pressure Humidity
    00:00 +29°C° 0 mm 4 mps 755 mmHg 70%
    01:00 +29°C° 0 mm 4 mps 754 mmHg 71%
    02:00 +29°C° 0 mm 4 mps 754 mmHg 72%
    03:00 +28°C° 0 mm 4 mps 754 mmHg 73%
    04:00 +28°C° 0 mm 4 mps 755 mmHg 73%
    05:00 +28°C° 0 mm 4 mps 755 mmHg 73%
    06:00 +29°C° 0 mm 4 mps 755 mmHg 67%
    07:00 +32°C° 0 mm 4 mps 756 mmHg 62%
    08:00 +33°C° 0 mm 4 mps 757 mmHg 56%
    09:00 +34°C° 0 mm 4 mps 756 mmHg 51%
    10:00 +36°C° 0 mm 3 mps 756 mmHg 46%
    11:00 +37°C° 0 mm 2 mps 756 mmHg 41%
    12:00 +37°C° 0 mm 3 mps 755 mmHg 41%
    13:00 +38°C° 0 mm 3 mps 754 mmHg 40%
    14:00 +38°C° 0 mm 3 mps 754 mmHg 39%
    15:00 +37°C° 0 mm 3 mps 754 mmHg 44%
    16:00 +35°C° 0 mm 3 mps 754 mmHg 50%
    17:00 +34°C° 0 mm 4 mps 754 mmHg 56%
    18:00 +33°C° 0 mm 3 mps 755 mmHg 58%
    19:00 +33°C° 0 mm 3 mps 755 mmHg 59%
    20:00 +31°C° 0 mm 2 mps 756 mmHg 61%
    21:00 +31°C° 0 mm 2 mps 756 mmHg 62%
    22:00 +31°C° 0 mm 2 mps 756 mmHg 63%
    23:00 +31°C° 0 mm 1 mps 756 mmHg 64%
    Show more